(260708) = 2005 JG143

Discovered at Mount Lemmon on 2005-05-15 by Mt. Lemmon Survey.

Orbit

Orbit type: Main Belt

Note: WebGL enabled browser required.

epoch2024-03-31.0
epoch JD2460400.5
perihelion date2021-05-30.35201
perihelion JD2459364.85201
argument of perihelion (°)155.85115
ascending node (°)163.54193
inclination (°)3.30236
eccentricity0.2008075
perihelion distance (AU)1.9653583
Tisserand w.r.t. Jupiter3.5
ΔV w.r.t. Earth (km/sec)8.8
semimajor axis (AU)2.4591802
mean anomaly (°)264.68571
mean daily motion (°/day)0.25557500
aphelion distance (AU)2.953
period (years)3.86
P-vector [x]0.75938519
P-vector [y]-0.60593434
P-vector [z]-0.23701838
Q-vector [x]0.65043661
Q-vector [y]0.71612115
Q-vector [z]0.25318515
absolute magnitude16.61
phase slope0.15
uncertainty0
referenceMPEC 2024-F50
observations used597
oppositions17
arc length (days)10312
first opposition used1995
last opposition used2024
residual rms (arc-secs)0.70
perturbers coarse indicatorM-v
perturbers precise indicator003Ek
first observation date used1995-12-25.0
last observation date used2024-03-19.0
computer nameMPCLINUX
JD of orbit computation2456612.510762
perihelion JD uncertainty (days)3.8390E-05
argument of perihelion uncertainty (°)7.9029E-05
ascending node uncertainty (°)7.8259E-05
inclination uncertainty (°)4.5830E-06
eccentricity uncertainty 5.0236E-08
perihelion distance uncertainty (AU)1.2174E-07
Minimum Orbit Intersection Distances (in AU)
for orbit epoch: 2460400.5, reference: E2024-G51
Mercury1.54671
Venus1.24054
Earth0.95278
Mars0.58497
Jupiter2.35116
Saturn6.19357
Uranus15.5209
Neptune27.2552

Observations

607 total observations over interval: 1995 12 25.33386 – 2024 03 19.533741
These data are available for download (format description).

Date (UT) J2000 RA J2000 Dec Magn Location Ref
1995 12 25.33386 08 28 26.92 +15 25 21.6 21.1 V 691 – Steward Observatory, Kitt Peak-Spacewatch MPS 139356
1995 12 25.35534 08 28 26.13 +15 25 22.3   691 – Steward Observatory, Kitt Peak-Spacewatch MPS 139356
1995 12 25.37680 08 28 25.08 +15 25 27.3   691 – Steward Observatory, Kitt Peak-Spacewatch MPS 139356
2001 05 02.32404 14 36 39.74 -10 20 17.6 21.0   644 – Palomar Mountain/NEAT MPS 139356
2001 05 02.33509 14 36 39.04 -10 20 13.8 21.0   644 – Palomar Mountain/NEAT MPS 139356
2001 05 02.34604 14 36 38.38 -10 20 10.1 19.9   644 – Palomar Mountain/NEAT MPS 139356
2002 11 05.27472 03 27 55.79 +13 34 53.5 20.3   644 – Palomar Mountain/NEAT MPS 139356
2002 11 05.34684 03 27 51.35 +13 34 33.7 20.5   644 – Palomar Mountain/NEAT MPS 139356
2002 11 05.41985 03 27 46.82 +13 34 13.3 20.3   644 – Palomar Mountain/NEAT MPS 139356
2005 05 15.36679 16 07 38.43 -15 07 37.8 18.9 R G96 – Mt. Lemmon Survey MPS 135405
2005 05 15.37273 16 07 38.08 -15 07 36.4 18.7 R G96 – Mt. Lemmon Survey MPS 135405
2005 05 15.37866 16 07 37.74 -15 07 35.0 18.7 R G96 – Mt. Lemmon Survey MPS 135405
2005 05 15.38457 16 07 37.41 -15 07 33.8 18.7 R G96 – Mt. Lemmon Survey MPS 135405
2005 05 19.32576 16 03 55.79 -14 52 47.3 18.2 R G96 – Mt. Lemmon Survey MPS 135405
2005 05 19.33231 16 03 55.41 -14 52 45.8 18.5 R G96 – Mt. Lemmon Survey MPS 135405
2005 05 19.33888 16 03 55.00 -14 52 44.6 18.5 R G96 – Mt. Lemmon Survey MPS 135405
2005 05 19.34545 16 03 54.61 -14 52 43.0 18.7 R G96 – Mt. Lemmon Survey MPS 135405
2005 06 01.29383 15 51 20.29 -14 08 54.4 19.7 V 691 – Steward Observatory, Kitt Peak-Spacewatch MPS 135986
2005 06 01.31116 15 51 19.22 -14 08 50.9 20.2 V 691 – Steward Observatory, Kitt Peak-Spacewatch MPS 135986
2005 06 01.32850 15 51 18.22 -14 08 47.8 19.6 V 691 – Steward Observatory, Kitt Peak-Spacewatch MPS 135987
2005 06 05.27130 15 47 39.34 -13 57 57.8 19.1   704 – Lincoln Laboratory ETS, New Mexico MPS 135987
2005 06 05.28177 15 47 38.75 -13 57 56.0 19.3   704 – Lincoln Laboratory ETS, New Mexico MPS 135987
2005 06 05.29234 15 47 38.13 -13 57 54.7 19.5   704 – Lincoln Laboratory ETS, New Mexico MPS 135987
2005 06 13.21832 15 41 04.21 -13 41 20.4 20.0 V 691 – Steward Observatory, Kitt Peak-Spacewatch MPS 136559
2005 06 13.23573 15 41 03.39 -13 41 18.6 19.7 V 691 – Steward Observatory, Kitt Peak-Spacewatch MPS 136559
2005 06 13.25315 15 41 02.57 -13 41 17.1 19.7 V 691 – Steward Observatory, Kitt Peak-Spacewatch MPS 136559
2006 11 02.30053 04 57 15.73 +17 37 43.3 20.1 V G96 – Mt. Lemmon Survey MPS 185477
2006 11 02.30437 04 57 15.62 +17 37 43.1 20.1 V G96 – Mt. Lemmon Survey MPS 185477
2006 11 02.30825 04 57 15.44 +17 37 42.2 19.8 V G96 – Mt. Lemmon Survey MPS 185477
2006 11 02.31232 04 57 15.30 +17 37 41.7 20.2 V G96 – Mt. Lemmon Survey MPS 185477
2006 11 17.37118 04 44 42.03 +16 58 14.3 19.8 V G96 – Mt. Lemmon Survey MPS 188703
2006 11 17.37773 04 44 41.64 +16 58 12.9 19.7 V G96 – Mt. Lemmon Survey MPS 188703
2006 11 17.38429 04 44 41.24 +16 58 12.0 19.8 V G96 – Mt. Lemmon Survey MPS 188703
2006 11 17.39086 04 44 40.81 +16 58 10.8 19.7 V G96 – Mt. Lemmon Survey MPS 188703
2006 11 20.22360 04 41 49.90 +16 50 44.9 20.3 V 691 – Steward Observatory, Kitt Peak-Spacewatch MPS 188703
2006 11 20.24129 04 41 48.77 +16 50 42.3 20.1 V 691 – Steward Observatory, Kitt Peak-Spacewatch MPS 188703
2006 11 20.25897 04 41 47.66 +16 50 39.4 20.0 V 691 – Steward Observatory, Kitt Peak-Spacewatch MPS 188703
2006 12 01.32132 04 30 03.16 +16 23 24.9 19.9 V G96 – Mt. Lemmon Survey MPS 190498
2006 12 01.32174 04 30 03.16 +16 23 25.3 19.4 V G96 – Mt. Lemmon Survey MPS 190498
2006 12 01.32700 04 30 02.80 +16 23 24.5 20.0 V G96 – Mt. Lemmon Survey MPS 190498
2006 12 01.32744 04 30 02.77 +16 23 24.9 19.2 V G96 – Mt. Lemmon Survey MPS 190498
2006 12 01.33273 04 30 02.37 +16 23 23.8 19.7 V G96 – Mt. Lemmon Survey MPS 190498
2006 12 01.33316 04 30 02.37 +16 23 24.1 19.4 V G96 – Mt. Lemmon Survey MPS 190498
2006 12 01.33849 04 30 02.01 +16 23 23.3 19.1 V G96 – Mt. Lemmon Survey MPS 190498
2006 12 01.33892 04 30 01.98 +16 23 22.9 19.2 V G96 – Mt. Lemmon Survey MPS 190498
2008 01 31.37642 10 39 52.88 +07 12 47.3 21.0 V G96 – Mt. Lemmon Survey MPS 235347
2008 01 31.38427 10 39 52.56 +07 12 49.9 20.9 V G96 – Mt. Lemmon Survey MPS 235347
2008 01 31.39218 10 39 52.23 +07 12 51.7 20.3 V G96 – Mt. Lemmon Survey MPS 235347
2008 01 31.40010 10 39 51.91 +07 12 53.4 21.0 V G96 – Mt. Lemmon Survey MPS 235347
2008 02 08.28858 10 34 05.39 +07 52 56.7 20.1 V 691 – Steward Observatory, Kitt Peak-Spacewatch MPS 236245
2008 02 08.30618 10 34 04.51 +07 53 03.9 20.9 V 691 – Steward Observatory, Kitt Peak-Spacewatch MPS 236245
2008 02 08.32378 10 34 03.65 +07 53 10.0 20.7 V 691 – Steward Observatory, Kitt Peak-Spacewatch MPS 236245
2008 02 12.28742 10 30 47.94 +08 15 34.3 21.0 V 691 – Steward Observatory, Kitt Peak-Spacewatch MPS 237548
2008 02 12.30507 10 30 47.03 +08 15 40.7 20.3 V 691 – Steward Observatory, Kitt Peak-Spacewatch MPS 237548
2008 02 12.32270 10 30 46.12 +08 15 47.0 20.6 V 691 – Steward Observatory, Kitt Peak-Spacewatch MPS 237548
2008 02 26.24473 10 18 18.93 +09 40 31.8 20.5 V G96 – Mt. Lemmon Survey MPS 239431
2008 02 26.25189 10 18 18.54 +09 40 34.5 20.6 V G96 – Mt. Lemmon Survey MPS 239431
2008 02 26.25902 10 18 18.10 +09 40 37.4 20.6 V G96 – Mt. Lemmon Survey MPS 239431
2008 02 26.26630 10 18 17.71 +09 40 40.0 20.3 V G96 – Mt. Lemmon Survey MPS 239431
2008 03 07.23906 10 09 27.25 +10 40 31.6 20.6 V G96 – Mt. Lemmon Survey MPS 242112
2008 03 07.24573 10 09 26.89 +10 40 33.7 20.4 V G96 – Mt. Lemmon Survey MPS 242112
2008 03 07.25244 10 09 26.56 +10 40 36.0 20.6 V G96 – Mt. Lemmon Survey MPS 242112
2008 03 07.25911 10 09 26.20 +10 40 38.2 20.7 V G96 – Mt. Lemmon Survey MPS 242112
2008 03 14.26194 10 03 50.86 +11 18 43.7 21.1 V G96 – Mt. Lemmon Survey MPS 242112
2008 03 14.26925 10 03 50.58 +11 18 45.5 20.9 V G96 – Mt. Lemmon Survey MPS 242112
2008 03 14.27657 10 03 50.22 +11 18 48.0 20.6 V G96 – Mt. Lemmon Survey MPS 242112
2008 03 14.28396 10 03 49.89 +11 18 50.3 20.8 V G96 – Mt. Lemmon Survey MPS 242112
2010 12 25.34493 05 25 09.87 +18 08 38.2 19.5 V G96 – Mt. Lemmon Survey MPS 362970
2010 12 25.35183 05 25 09.40 +18 08 38.3 20.1 V G96 – Mt. Lemmon Survey MPS 362970
2010 12 25.35874 05 25 08.94 +18 08 38.5 20.3 V G96 – Mt. Lemmon Survey MPS 362970
2011 01 10.18789 05 11 27.85 +18 13 36.3 20.0 V G96 – Mt. Lemmon Survey MPS 365519
2011 01 10.19487 05 11 27.56 +18 13 35.8 20.5 V G96 – Mt. Lemmon Survey MPS 365519
2011 01 10.20189 05 11 27.24 +18 13 35.9 20.4 V G96 – Mt. Lemmon Survey MPS 365519
2011 01 10.20892 05 11 26.91 +18 13 36.4 20.2 V G96 – Mt. Lemmon Survey MPS 365519
2012 02 14.59965 11 22 45.571 +03 50 12.97 20.7 i F51 – Pan-STARRS 1, Haleakala MPS 412874
2012 02 14.60031 11 22 45.530 +03 50 13.89 21.0 i F51 – Pan-STARRS 1, Haleakala MPS 412874
2012 02 14.61109 11 22 45.090 +03 50 16.46 20.8 i F51 – Pan-STARRS 1, Haleakala MPS 412874
2012 02 14.61174 11 22 45.068 +03 50 16.94 21.1 i F51 – Pan-STARRS 1, Haleakala MPS 412874
2012 02 19.32892 11 19 20.21 +04 16 40.9 20.5 V 691 – Steward Observatory, Kitt Peak-Spacewatch MPS 414063
2012 02 19.34182 11 19 19.57 +04 16 45.1 20.8 V 691 – Steward Observatory, Kitt Peak-Spacewatch MPS 414063
2012 02 19.35471 11 19 18.97 +04 16 49.2 21.0 V 691 – Steward Observatory, Kitt Peak-Spacewatch MPS 414063
2012 02 23.36311 11 16 08.50 +04 41 01.1 20.6 V G96 – Mt. Lemmon Survey MPS 425889
2012 02 23.37296 11 16 08.00 +04 41 04.8 20.7 V G96 – Mt. Lemmon Survey MPS 425889
2012 02 23.38274 11 16 07.57 +04 41 08.3 20.5 V G96 – Mt. Lemmon Survey MPS 425889
2012 02 23.39252 11 16 07.03 +04 41 12.0 20.9 V G96 – Mt. Lemmon Survey MPS 425889
2012 02 29.23126 11 11 10.10 +05 18 31.2 20.5 V 691 – Steward Observatory, Kitt Peak-Spacewatch MPS 416009
2012 02 29.24720 11 11 09.25 +05 18 37.0 20.6 V 691 – Steward Observatory, Kitt Peak-Spacewatch MPS 416009
2012 02 29.26068 11 11 08.52 +05 18 42.7 20.3 V 691 – Steward Observatory, Kitt Peak-Spacewatch MPS 416009
2012 03 04.28756 11 07 34.89 +05 45 16.5 20.1 V G96 – Mt. Lemmon Survey MPS 416009
2012 03 04.29338 11 07 34.57 +05 45 19.0 20.0 V G96 – Mt. Lemmon Survey MPS 416009
